Regional Weather Roundup
Issued by NWS Sterling, VA

Home | Current Version | Previous Version | Graphics & Text | Print | Product List | Glossary On
Versions: 1 2 3 4 5 6 7 8 9 10 11 12 13 14 15 16 17 18 19 20 21 22 23 24 25 26 27 28 29 30 31 32 33 34 35 36 37 38 39 40 41 42 43 44 45 46 47 48 49 50
000
ASUS41 KLWX 100010
RWRLWX

REGIONAL WEATHER ROUNDUP
NATIONAL WEATHER SERVICE BALTIMORE MD/WASHINGTON DC
800 PM EDT WED JUL 09 2014

Note: "FAIR" indicates few or no clouds below 12,000 feet
with no significant weather and/or obstructions to visibility.
 TC=TEMPERATURE CELSIUS

 * =Non NWS site. Station does not report precipitation (e.g. rain,
    snow, etc.), thunder, or fog.

DCZ001-MDZ009-015-VAZ040>042-051-053>054-100100-
WASHINGTON METRO
  /KDAA//-FT BELVOIR

CITY           SKY/WX    TMP DP  RH WIND       PRES   REMARKS
WASHINGTON NAT CLOUDY    74  66  76 CALM      29.93S
DULLES         MOCLDY    72  65  78 CALM      29.93R
ANDREWS AFB    CLOUDY    70  68  93 E6        29.94R
QUANTICO       MOCLDY    74  69  85 W5        29.93R
COLLEGE PARK*  CLOUDY    73  68  83 CALM      29.93R
LEESBURG*      MOCLDY    77  72  83 S3        29.93S
MANASSAS*      PTCLDY    72  72 100 CALM      29.92R
GAITHERSBURG*  CLOUDY    77  66  69 S6        29.97R

$$

MDZ006>007-011-014-100100-
BALTIMORE METRO

CITY           SKY/WX    TMP DP  RH WIND       PRES   REMARKS
BWI AIRPORT    CLOUDY    78  66  66 S10G16    29.93R
MD SCIENCE CTR   N/A     82  68  62 MISG      29.92R
MARTIN STATE   CLOUDY    75  75 100 CALM      29.93
ANNAPOLIS      CLOUDY    74  68  81 SW7       29.93R
FORT MEADE*    CLOUDY    72  68  88 CALM      29.96R

$$

MDZ012-015-019>023-100100-
MARYLAND EASTERN SHORE

CITY           SKY/WX    TMP DP  RH WIND       PRES   REMARKS
OCEAN CITY     CLOUDY    80  67  64 SW10G17   29.95R
SALISBURY      CLOUDY    83  69  62 SW10      29.96R
BAY BRIDGE AP* DRIZZLE   77  73  88 S6        29.93R
CAMBRIDGE*     CLOUDY    72  68  88 W9G24     29.97R VSB 1
EASTON*        TSTM      81  81 100 S8        29.98  HX  91

$$

MDZ017>025-100100-
SOUTHERN MARYLAND

CITY           SKY/WX    TMP DP  RH WIND       PRES   REMARKS
PATUXENT RIVER CLOUDY    72  68  87 N7        29.96R
ST INIGOES     CLOUDY    73  66  78 N7        29.95R
LEONARDTOWN*   NOT AVBL

$$

MDZ003>005-100100-
NORTH CENTRAL MARYLAND

CITY           SKY/WX    TMP DP  RH WIND       PRES   REMARKS
FREDERICK*     CLEAR     79  75  89 CALM      29.94R
HAGERSTOWN APT PTCLDY    81  69  67 S7        29.91R
WESTMINSTER*   MOCLDY    79  70  73 SW3       29.93S

$$

MDZ501>502-100100-
WESTERN MARYLAND

CITY           SKY/WX    TMP DP  RH WIND       PRES   REMARKS
OAKLAND*       CLEAR     70  55  60 W5        30.05R
CUMBERLAND*    CLEAR     84  54  34 W5        29.97R

$$

VAZ025>031-100100-
SHENANDOAH VALLEY

CITY           SKY/WX    TMP DP  RH WIND       PRES   REMARKS
WINCHESTER*    CLOUDY    79  68  69 CALM      29.93R
STAUNTON*      MOCLDY    79  65  61 S7        29.97R

$$

WVZ021-048>050-054>055-100100-
EASTERN WEST VIRGINIA PANHANDLE

CITY           SKY/WX    TMP DP  RH WIND       PRES   REMARKS
MARTINSBURG    MOCLDY    80  65  59 S7        29.92R
PETERSBURG*    MOCLDY    78  59  51 CALM      29.96R

$$

VAZ036>039-050-100100-
CENTRAL FOOTHILLS

CITY           SKY/WX    TMP DP  RH WIND       PRES   REMARKS
CHARLOTTESVILL MOCLDY    79  70  74 S7        29.94R
ORANGE*        CLOUDY    77  70  78 CALM      29.96R

$$

VAZ055>057-100100-
NORTH AND CENTRAL PIEDMONT

CITY           SKY/WX    TMP DP  RH WIND       PRES   REMARKS
FREDERICKSBRG* MOCLDY    77  70  79 CALM      29.92R
STAFFORD*      MOCLDY    71  71 100 CALM      29.97R

$$

NCZ024-NYZ072-PAZ021-071-VAZ022-071-100100-
OTHER REGIONAL OBSERVATIONS

CITY           SKY/WX    TMP DP  RH WIND       PRES   REMARKS
NEW YORK CITY  RAIN      78  65  63 NW8       29.93R
PHILADELPHIA   CLOUDY    84  67  56 SW8       29.90R
PITTSBURGH     MOCLDY    77  55  46 W7        29.95R
ROANOKE        MOCLDY    73  67  81 CALM      30.01S
RICHMOND       CLOUDY    80  69  69 S8        29.95R
RALEIGH        CLOUDY    76  71  85 CALM      29.97R

$$

ANZ530>537-100100-
MARINE OBSERVATIONS

STATION/POSITION TIME  TEMP    WIND        PRES
                       AIR SEA DIR/SP/G
                 (UTC) (F)     (DEG/KT/KT) (MB)
THOMAS PT LIGHT  0000   75 79  230/  9/ 10 1014.1R
BALT KEY BRIDGE  0000   80     180/  9/ 10 1012.5R
COVE POINT       0000   68      20/ 13/ 18 1014.2F
LEWISETTA        0000   76 83  360/  9/ 13 1014.6R
SOLOMONS ISLAND  0000      81                N/A
PINEY POINT      0000           40/ 11/ 13   N/A

$$




USA.gov is the U.S. government's official web portal to all federal, state and local government web resources and services.